Location: ASU Dark Sky Observatory
(36.2504°N, 81.4125°W)
Time: 20:52:32
(UTC-04:00)

Daily predictions for brighter satellites

Satellite Brightness Start Highest point End
(mag) Time Altitude Azimuth Time Altitude Azimuth Time Altitude Azimuth
Cosmos 1302 Rocket 4.1 20:25:02 10° S 20:30:04 52° ESE 20:35:07 10° NNE
Envisat 4.5 20:27:12 10° ESE 20:30:45 20° ENE 20:34:20 10° NNE
Meteor 2-3 Rocket 3.8 20:26:32 10° N 20:32:14 70° E 20:37:58 10° SSE
FREGAT/IRIS 4.0 20:32:54 10° S 20:35:48 43° W 20:38:43 10° NNW
Cosmos 1315 Rocket 3.7 20:32:48 10° NNE 20:36:28 31° ENE 20:40:03 10° SE
Cosmos 1980 Rocket 2.2 20:30:54 10° SSW 20:36:34 87° ESE 20:42:19 10° NNE
USA 234 4.2 20:36:29 10° E 20:42:18 36° NNE 20:48:08 10° NNW
SEDSat Delta rocket 4.3 20:40:27 10° SW 20:45:06 34° SSE 20:50:22 10° E
Cosmos 2227 Rocket 4.3 20:41:49 10° NW 20:46:33 28° WSW 20:51:15 10° SSW
OTV 4 1.6 20:44:00 10° W 20:46:37 32° SSW 20:49:08 11° SE
CZ-2D R/B 3.4 20:45:01 10° SSE 20:48:51 59° ENE 20:52:41 10° N
Cosmos 1825 3.8 20:47:32 10° NNE 20:50:14 18° ENE 20:52:20 13° ESE
SL-16 R/B 2.6 20:47:55 10° S 20:53:07 39° ESE 20:58:21 10° NE
Nadezhda 4 Rocket 4.1 20:48:56 10° N 20:55:14 89° W 21:01:33 10° S
GPS 2-04 Rocket1 4.3 20:55:55 10° WSW 20:58:42 21° SSW 21:01:33 10° SSE
Cosmos 1634 Rocket 4.0 20:54:27 10° S 21:00:38 63° E 21:06:52 10° NNE
ATLAS 5 CENTAUR R/B 4.2 20:58:20 10° N 21:01:55 16° NE 21:05:38 10° ENE
Cosmos 1707 Rocket 3.6 20:58:24 10° S 21:02:51 90° E 21:07:18 10° N
ERS-1 Rocket 4.5 21:02:10 14° E 21:04:39 19° ENE 21:08:10 10° NNE
USA 186 1.2 21:02:40 12° SSE 21:04:58 66° ENE 21:07:47 10° N
Cosmos 1092 Rocket 4.0 20:58:37 10° N 21:04:59 78° E 21:11:19 10° S
Helios 1B rocket 2.5 21:01:48 10° NNE 21:05:49 52° E 21:09:49 10° S
Lacrosse 4 Rocket 2.7 21:02:49 10° N 21:06:29 26° ENE 21:08:46 17° E
ALOS 4.0 21:04:32 10° SSW 21:08:44 33° W 21:12:57 10° NNW
SAR-Lupe-4 3.9 21:07:59 16° SE 21:10:36 47° ENE 21:14:04 10° N
Cosmos 1939 Rocket 3.7 21:08:26 18° SE 21:10:49 33° ENE 21:14:27 10° N
ERBS 3.3 21:07:51 10° NNW 21:11:03 33° NE 21:12:44 21° E
Gblst 52 Del rocket 4.4 21:06:15 10° NW 21:12:02 66° SW 21:16:27 16° SE
Cosmos 1733 Rocket 4.1 21:08:27 10° NNE 21:12:18 28° ENE 21:14:14 20° ESE
Cosmos 1486 Rocket 4.0 21:08:50 10° NNW 21:14:05 88° ENE 21:19:20 10° SSE
Cosmos 1862 Rocket 4.3 21:13:00 15° SSE 21:16:02 33° E 21:20:03 10° NNE
SeaSat 1 4.5 21:17:14 11° ENE 21:19:16 13° NE 21:21:37 10° NNE
Resurs 1-3 4.4 21:16:07 10° S 21:20:23 52° W 21:24:41 10° NNW
Cosmos 1992 Rocket 4.1 21:17:41 10° S 21:22:42 50° ESE 21:27:45 10° NNE
Cosmos 1869 Rocket 4.4 21:19:10 10° NNW 21:23:32 53° W 21:27:52 10° S
Cosmos 2227 4.2 21:18:39 10° NNW 21:24:25 86° WSW 21:29:15 15° SSE
Cosmos 1408 2.7 21:22:14 10° N 21:25:51 54° E 21:27:28 29° SSE
Atlas Centaur 2 3.3 21:20:25 10° SW 21:26:53 40° SSE 21:31:32 22° ESE
SAR-Lupe-1 4.0 21:26:08 25° SSE 21:28:04 71° ENE 21:31:39 10° N
Cosmos 2242 Rocket 3.6 21:29:52 10° S 21:34:24 86° W 21:38:55 10° N
Cosmos 1627 Rocket 4.5 21:32:56 10° N 21:39:10 87° W 21:45:01 11° S
Helios 1A 3.3 21:36:33 15° S 21:39:57 64° WSW 21:44:11 10° NNW
Cosmos 2279 Rocket 3.9 21:35:39 10° S 21:41:52 79° E 21:48:07 10° N
Cosmos 1503 Rocket 3.9 21:40:11 10° NNW 21:45:28 86° ENE 21:48:09 29° SSE
DELTA 2 R/B (1) 4.2 21:42:02 10° W 21:47:20 44° SSW 21:49:34 30° SSE
Cosmos 1354 Rocket 4.0 21:44:09 10° NNW 21:49:27 86° WSW 21:52:09 30° SSE
Resurs 01 Rocket 4.1 21:48:22 10° SW 21:51:40 20° W 21:54:58 10° NW
H-2A R/B 3.7 21:52:50 17° ENE 21:52:50 17° ENE 21:55:51 10° NNE
SJ-11-01 4.5 21:51:18 24° S 21:54:04 70° W 21:58:44 10° NNW
CZ-4B DEB 3.7 21:54:21 34° SW 21:55:04 41° W 21:57:59 10° NNW
OAO 3 Rocket 3.1 21:50:18 10° W 21:55:14 79° S 21:56:38 47° ESE
YAOGAN 6 2.4 21:56:56 72° E 21:57:03 73° ENE 22:00:41 10° N
Cosmos 1428 Rocket 4.3 21:55:30 10° N 22:01:38 87° E 22:04:53 30° S
FALCON 9 R/B 2.6 22:00:02 10° W 22:00:47 18° WSW 22:00:47 18° WSW
SPOT 5 3.5 22:04:10 37° ENE 22:04:12 37° ENE 22:08:34 10° N
Cosmos 968 Rocket 4.1 22:01:41 10° N 22:06:32 38° ENE 22:06:50 38° ENE
Cosmos 2263 Rocket 2.1 22:01:31 10° NNW 22:07:05 71° ENE 22:08:25 51° SE
COSMOS 2428 4.3 22:10:12 19° ENE 22:10:12 19° ENE 22:12:15 10° NE
Meteor 2-10 Rocket 3.7 22:05:36 31° S 22:08:31 76° E 22:14:20 10° NNE
Cosmos 2322 Rocket 3.3 22:04:01 10° SW 22:09:20 43° WNW 22:14:41 10° N
Envisat 4.0 22:05:47 17° SSW 22:09:25 43° W 22:14:16 10° NNW
Cosmos 1933 4.1 22:11:30 27° SW 22:13:22 51° W 22:17:18 10° N
Sich 1 Rocket 3.7 22:12:25 10° N 22:16:31 61° NE 22:16:31 61° NE
Cosmos 2360 Rocket 2.0 22:15:49 22° SSW 22:19:34 85° ESE 22:25:16 10° NNE
H-2A R/B 4.3 22:23:59 14° NE 22:23:59 14° NE 22:25:11 10° NNE
USA 234 3.4 22:22:54 44° SSE 22:25:00 67° SW 22:31:31 10° NW
Cosmos 1825 4.4 22:22:45 10° NW 22:25:45 22° W 22:27:15 18° WSW
Cosmos 2322 3.6 22:25:27 43° SSW 22:27:26 85° ESE 22:33:10 10° NNE
NOAA 11 4.1 22:28:03 67° SSE 22:28:49 88° E 22:34:21 10° NNW
Cosmos 1908 Rocket 3.7 22:25:05 10° N 22:28:49 66° N 22:28:49 66° N
SEDSat Delta rocket 3.9 22:25:38 10° WSW 22:30:35 53° SSW 22:30:35 53° SSW
USA 245 4.2 22:30:44 68° ESE 22:31:14 72° ENE 22:36:34 10° N
SL-16 R/B 4.2 22:32:34 10° WSW 22:37:17 27° WNW 22:42:02 10° N
SPOT 1/Viking Rocket 3.8 22:40:22 56° NE 22:40:22 56° NE 22:44:53 10° N
MetOp-B 4.2 22:42:09 68° SW 22:42:32 71° WSW 22:47:53 10° NNW
ERS-1 Rocket 3.8 22:42:09 39° SW 22:43:05 43° W 22:47:51 10° NNW
Lacrosse 4 Rocket 3.2 22:41:29 10° NW 22:45:06 26° WSW 22:45:08 26° WSW
Okean 2 Rocket 4.4 22:42:20 10° N 22:45:00 33° NNE 22:45:00 33° NNE
ATLAS 5 CENTAUR R/B 2.3 22:41:20 10° NNW 22:47:28 79° ENE 22:47:45 77° E
Cosmos 2333 Rocket 4.5 22:52:12 12° NE 22:52:12 12° NE 22:52:42 10° NE
ARGOS 3.2 22:52:58 74° WNW 22:52:58 74° WNW 22:58:07 10° NNW
Milstar 3 3.7 22:48:01 10° WSW 22:53:09 32° SSW 22:53:09 32° SSW
SeaSat 1 2.8 22:57:02 61° NW 22:57:02 61° NW 23:01:07 10° NNW
Cosmos 2278 Rocket 4.1 22:57:10 10° NNE 23:00:07 17° NE 23:00:07 17° NE
Terra 3.4 23:10:04 29° NNE 23:10:04 29° NNE 23:12:31 10° N
Cosmos 1844 Rocket 3.6 23:05:04 10° N 23:09:04 40° NNE 23:09:04 40° NNE
USA 229 DEB 4.1 23:04:07 10° SW 23:10:49 60° NW 23:17:40 10° NNE
USA 229 4.1 23:04:10 10° SW 23:10:54 61° NW 23:17:45 10° NNE
Atlas Centaur 2 3.4 23:08:38 10° WSW 23:14:12 47° SW 23:14:12 47° SW
Cosmos 2219 Rocket 3.8 23:28:37 26° NNE 23:28:37 26° NNE 23:30:57 10° NNE
CZ-4C R/B 4.0 23:25:26 10° NNW 23:31:44 32° NE 23:32:09 32° NE
H-2A R/B 3.4 23:33:27 35° NW 23:33:27 35° NW 23:36:34 10° NNW
COSMOS 2428 4.0 23:52:08 35° NW 23:52:08 35° NW 23:56:49 10° N
H-2A R/B 4.1 23:15:33 10° W 23:51:40 49° SW 23:51:40 49° SW
